Weather History for KACT - October, 2014

Change the Weather History Date:

Wednesday, October 1, 2014

  Actual Average Record
Temperature  
Mean Temperature 84 °F 73 °F  
Max Temperature 93 °F 85 °F 100 °F (1977)
Min Temperature 74 °F 61 °F 42 °F (1939)
Degree Days  
Heating Degree Days 0 1  
Month to date heating degree days 0 1  
Since 1 July heating degree days 0 7  
Cooling Degree Days 19 8  
Month to date cooling degree days 19 8  
Year to date cooling degree days 2533 2602  
Growing Degree Days 30 (Base 50)    
Moisture  
Dew Point 68 °F    
Average Humidity 66    
Maximum Humidity 87    
Minimum Humidity 44    
Precipitation  
Precipitation 0.00 in 0.11 in 3.05 in (2004)
Month to date precipitation 0.00 0.11  
Year to date precipitation 21.86 25.33  
Sea Level Pressure  
Sea Level Pressure 29.79 in    
Wind  
Wind Speed 12 mph (South)    
Max Wind Speed 18 mph    
Max Gust Speed 24 mph    
Visibility 10 miles    
Events      
T = Trace of Precipitation, MM = Missing Value Source: NWS Daily Summary

Daily Weather History Graph

Daily Weather History Graph

Search for Another Location

Airport or City:

Trip Planner

Search our weather history database for the weather conditions in past years. The results will help you decide how hot, cold, wet, or windy it might be!

Date:

Astronomy

Oct. 01, 2014 Rise Set
Actual Time 7:22 AM CDT 7:13 PM CDT
Civil Twilight 6:58 AM CDT 7:38 PM CDT
Nautical Twilight 6:30 AM CDT 8:06 PM CDT
Astronomical Twilight 6:01 AM CDT 8:34 PM CDT
Moon 2:09 PM CDT (10/1) 12:02 AM CDT (10/1)
Length of Visible Light 12h 39m
Length of Day
11h 51m
Waxing Crescent, 49% of the Moon is Illuminated
Oct 1
Waxing Crescent
Oct 1
First Quarter
Oct 8
Full
Oct 15
Last Quarter
Oct 23
New

Hourly Weather History & Observations

Time (CDT) Temp. Heat Index Dew Point Humidity Pressure Visibility Wind Dir Wind Speed Gust Speed Precip Events Conditions
12:51 AM 70.0 °F - 60.1 °F 71% 29.88 in 10.0 mi Calm Calm - N/A   Clear
1:51 AM 68.0 °F - 61.0 °F 78% 29.88 in 10.0 mi Calm Calm - N/A   Clear
2:51 AM 66.0 °F - 61.0 °F 84% 29.88 in 10.0 mi Calm Calm - N/A   Clear
3:51 AM 75.0 °F - 71.1 °F 87% 29.78 in 10.0 mi South 11.5 mph - N/A   Mostly Cloudy
4:25 AM 75.0 °F - 71.1 °F 87% 29.80 in 10.0 mi South 16.1 mph - N/A   Overcast
4:51 AM 75.0 °F - 71.1 °F 87% 29.78 in 10.0 mi South 13.8 mph - N/A   Overcast
5:20 AM 75.0 °F - 71.1 °F 87% 29.81 in 10.0 mi South 10.4 mph - N/A   Overcast
5:51 AM 75.9 °F - 70.0 °F 82% 29.79 in 10.0 mi SSW 13.8 mph - N/A   Overcast
7:51 AM 75.9 °F - 71.1 °F 85% 29.81 in 10.0 mi South 6.9 mph - N/A   Overcast
8:51 AM 78.1 °F - 71.1 °F 79% 29.81 in 10.0 mi SSE 6.9 mph - N/A   Overcast
9:51 AM 79.0 °F - 71.1 °F 77% 29.82 in 10.0 mi South 10.4 mph - N/A   Overcast
10:51 AM 82.0 °F 85.9 °F 70.0 °F 67% 29.82 in 10.0 mi South 10.4 mph - N/A   Overcast
11:10 AM 82.0 °F 85.9 °F 70.0 °F 67% 29.84 in 10.0 mi South 9.2 mph - N/A   Overcast
11:32 AM 84.0 °F 88.4 °F 70.0 °F 63% 29.84 in 10.0 mi South 10.4 mph - N/A   Mostly Cloudy
11:51 AM 84.9 °F 89.4 °F 70.0 °F 61% 29.82 in 10.0 mi SSW 8.1 mph - N/A   Scattered Clouds
12:51 PM 87.1 °F 91.3 °F 69.1 °F 55% 29.80 in 10.0 mi SSE 11.5 mph 16.1 mph N/A   Scattered Clouds
1:51 PM 90.0 °F 93.6 °F 68.0 °F 48% 29.77 in 10.0 mi South 10.4 mph - N/A   Partly Cloudy
2:51 PM 91.9 °F 95.9 °F 68.0 °F 45% 29.74 in 10.0 mi South 13.8 mph - N/A   Clear
3:51 PM 91.9 °F 94.5 °F 66.0 °F 42% 29.73 in 10.0 mi South 15.0 mph - N/A   Partly Cloudy
4:51 PM 91.9 °F 94.5 °F 66.0 °F 42% 29.72 in 10.0 mi South 15.0 mph - N/A   Scattered Clouds
5:51 PM 89.1 °F 90.0 °F 63.0 °F 42% 29.74 in 10.0 mi South 11.5 mph - N/A   Partly Cloudy
6:51 PM 88.0 °F 90.3 °F 66.0 °F 48% 29.72 in 10.0 mi SSE 13.8 mph - N/A   Clear
7:51 PM 86.0 °F 88.8 °F 66.9 °F 53% 29.74 in 10.0 mi SSE 10.4 mph - N/A   Clear
8:51 PM 84.0 °F 87.0 °F 68.0 °F 58% 29.75 in 10.0 mi SSE 10.4 mph - N/A   Clear
9:51 PM 82.4 °F 85.4 °F 68.0 °F 62% 29.79 in 10.0 mi SSE 11.5 mph - N/A   Clear
10:51 PM 82.0 °F 85.5 °F 69.1 °F 65% 29.77 in 10.0 mi SSE 15.0 mph - N/A   Clear
11:51 PM 81.0 °F 84.4 °F 70.0 °F 69% 29.77 in 10.0 mi SSE 17.3 mph 24.2 mph N/A   Clear